When you browse on this site, cookies collect data to enhance your experience and personalize the content and advertising you see.
Visit our Privacy Policy to learn more. By continuing to use the site, you agree to this use of cookies and data.
  • In Hungary
  • List of Countries
  • For 7 days
  • Water Temperature
  • Weather Map
  • News
  • Weather Widgets
  • user-avatar
    Login

    Hourly Weather Holguin

    Today, 10 April, Friday

    Time Temperature Precipitation Wind Pressure Humidity
    00:00 +23°C° 0 mm 1 mps 747 mmHg 88%
    01:00 +23°C° 0 mm 1 mps 746 mmHg 89%
    02:00 +22°C° 0 mm 1 mps 746 mmHg 88%
    03:00 +22°C° 0 mm 1 mps 746 mmHg 87%
    04:00 +22°C° 0 mm 1 mps 745 mmHg 87%
    05:00 +23°C° 0 mm 1 mps 746 mmHg 81%
    06:00 +24°C° 0 mm 1 mps 746 mmHg 76%
    07:00 +25°C° 0 mm 1 mps 747 mmHg 71%
    08:00 +28°C° 0 mm 1 mps 747 mmHg 60%
    09:00 +31°C° 0 mm 1 mps 747 mmHg 49%
    10:00 +34°C° 0 mm 1 mps 748 mmHg 38%
    11:00 +37°C° 0 mm 2 mps 747 mmHg 33%
    12:00 +38°C° 0 mm 2 mps 747 mmHg 28%
    13:00 +40°C° 0 mm 2 mps 747 mmHg 23%
    14:00 +39°C° 0 mm 3 mps 746 mmHg 25%
    15:00 +38°C° 0 mm 4 mps 745 mmHg 28%
    16:00 +37°C° 0 mm 5 mps 745 mmHg 30%
    17:00 +34°C° 0 mm 4 mps 745 mmHg 40%
    18:00 +30°C° 0 mm 4 mps 745 mmHg 49%
    19:00 +27°C° 0 mm 3 mps 746 mmHg 59%
    20:00 +26°C° 0 mm 2 mps 746 mmHg 63%
    21:00 +25°C° 0 mm 1 mps 747 mmHg 67%
    22:00 +23°C° 0 mm 0 mps 748 mmHg 71%
    23:00 +22°C° 0 mm 0 mps 748 mmHg 72%

    Tomorrow, 11 April, Saturday

    Time Temperature Precipitation Wind Pressure Humidity
    00:00 +24°C° 0 mm 1 mps 747 mmHg 72%
    01:00 +24°C° 0 mm 1 mps 747 mmHg 72%
    02:00 +23°C° 0 mm 1 mps 747 mmHg 75%
    03:00 +23°C° 0 mm 1 mps 747 mmHg 77%
    04:00 +23°C° 0 mm 1 mps 747 mmHg 80%
    05:00 +23°C° 0 mm 1 mps 747 mmHg 79%
    06:00 +24°C° 0 mm 1 mps 747 mmHg 77%
    07:00 +25°C° 0 mm 1 mps 748 mmHg 76%
    08:00 +28°C° 0 mm 1 mps 748 mmHg 60%
    09:00 +31°C° 0 mm 2 mps 749 mmHg 45%
    10:00 +36°C° 0 mm 2 mps 750 mmHg 30%
    11:00 +37°C° 0 mm 3 mps 749 mmHg 27%
    12:00 +38°C° 0 mm 3 mps 749 mmHg 24%
    13:00 +40°C° 0 mm 4 mps 748 mmHg 22%
    14:00 +39°C° 0 mm 5 mps 748 mmHg 27%
    15:00 +36°C° 0 mm 6 mps 747 mmHg 32%
    16:00 +35°C° 0 mm 7 mps 747 mmHg 37%
    17:00 +33°C° 0 mm 6 mps 747 mmHg 47%
    18:00 +29°C° 0 mm 6 mps 748 mmHg 58%
    19:00 +27°C° 0 mm 5 mps 748 mmHg 68%
    20:00 +26°C° 0 mm 5 mps 749 mmHg 74%
    21:00 +25°C° 0 mm 4 mps 749 mmHg 80%
    22:00 +25°C° 0 mm 3 mps 749 mmHg 87%
    23:00 +24°C° 0 mm 3 mps 749 mmHg 88%

    Day after tomorrow, 12 April, Sunday

    Time Temperature Precipitation Wind Pressure Humidity
    00:00 +24°C° 0 mm 3 mps 749 mmHg 90%
    01:00 +24°C° 0 mm 3 mps 749 mmHg 91%
    02:00 +24°C° 0 mm 3 mps 749 mmHg 92%
    03:00 +24°C° 0 mm 3 mps 748 mmHg 93%
    04:00 +22°C° 0 mm 3 mps 748 mmHg 93%
    05:00 +23°C° 0 mm 4 mps 749 mmHg 89%
    06:00 +25°C° 0 mm 4 mps 749 mmHg 85%
    07:00 +26°C° 0 mm 5 mps 750 mmHg 80%
    08:00 +28°C° 0 mm 5 mps 750 mmHg 68%
    09:00 +32°C° 0 mm 6 mps 751 mmHg 56%
    10:00 +34°C° 0 mm 6 mps 751 mmHg 44%
    11:00 +35°C° 0 mm 6 mps 751 mmHg 39%
    12:00 +38°C° 0 mm 6 mps 750 mmHg 35%
    13:00 +39°C° 0 mm 6 mps 750 mmHg 30%
    14:00 +38°C° 0 mm 6 mps 749 mmHg 35%
    15:00 +36°C° 0 mm 7 mps 749 mmHg 40%
    16:00 +35°C° 0 mm 7 mps 748 mmHg 44%
    17:00 +33°C° 0 mm 7 mps 749 mmHg 55%
    18:00 +29°C° 0 mm 6 mps 749 mmHg 66%
    19:00 +27°C° 0 mm 6 mps 749 mmHg 77%
    20:00 +27°C° 0 mm 5 mps 750 mmHg 80%
    21:00 +26°C° 0 mm 5 mps 750 mmHg 82%
    22:00 +26°C° 0 mm 4 mps 750 mmHg 85%
    23:00 +26°C° 0 mm 4 mps 750 mmHg 85%

    13 April, Monday

    Time Temperature Precipitation Wind Pressure Humidity
    00:00 +25°C° 0 mm 4 mps 750 mmHg 85%
    01:00 +25°C° 0 mm 4 mps 749 mmHg 85%
    02:00 +25°C° 0 mm 3 mps 749 mmHg 88%
    03:00 +24°C° 0 mm 3 mps 749 mmHg 91%
    04:00 +24°C° 0 mm 2 mps 749 mmHg 93%
    05:00 +24°C° 0 mm 3 mps 750 mmHg 89%
    06:00 +25°C° 0 mm 3 mps 750 mmHg 86%
    07:00 +26°C° 0 mm 3 mps 750 mmHg 82%
    08:00 +28°C° 0 mm 3 mps 751 mmHg 69%
    09:00 +31°C° 0 mm 3 mps 751 mmHg 57%
    10:00 +35°C° 0 mm 2 mps 751 mmHg 45%
    11:00 +36°C° 0 mm 3 mps 751 mmHg 40%
    12:00 +38°C° 0 mm 3 mps 750 mmHg 35%
    13:00 +39°C° 0 mm 3 mps 750 mmHg 30%
    14:00 +39°C° 0 mm 5 mps 749 mmHg 37%
    15:00 +36°C° 0 mm 6 mps 749 mmHg 44%
    16:00 +34°C° 0 mm 8 mps 749 mmHg 51%
    17:00 +32°C° 0 mm 7 mps 749 mmHg 58%
    18:00 +29°C° 0 mm 6 mps 749 mmHg 64%
    19:00 +27°C° 0 mm 5 mps 749 mmHg 71%
    20:00 +27°C° 0 mm 5 mps 750 mmHg 74%
    21:00 +26°C° 0 mm 5 mps 750 mmHg 77%
    22:00 +26°C° 0 mm 5 mps 751 mmHg 80%
    23:00 +26°C° 0 mm 4 mps 750 mmHg 82%

    14 April, Tuesday

    Time Temperature Precipitation Wind Pressure Humidity
    00:00 +25°C° 0 mm 4 mps 750 mmHg 83%
    01:00 +25°C° 0 mm 3 mps 749 mmHg 85%
    02:00 +25°C° 0 mm 3 mps 749 mmHg 87%
    03:00 +24°C° 0 mm 3 mps 749 mmHg 90%
    04:00 +24°C° 0 mm 3 mps 749 mmHg 92%
    05:00 +25°C° 0 mm 4 mps 749 mmHg 87%
    06:00 +26°C° 0 mm 4 mps 749 mmHg 82%
    07:00 +26°C° 0 mm 4 mps 750 mmHg 77%
    08:00 +29°C° 0 mm 5 mps 750 mmHg 66%
    09:00 +32°C° 0 mm 5 mps 750 mmHg 55%
    10:00 +34°C° 0 mm 5 mps 750 mmHg 44%
    11:00 +35°C° 0 mm 5 mps 750 mmHg 42%
    12:00 +36°C° 0 mm 6 mps 749 mmHg 40%
    13:00 +36°C° 0 mm 7 mps 749 mmHg 39%
    14:00 +35°C° 0 mm 7 mps 749 mmHg 43%
    15:00 +34°C° 0 mm 8 mps 748 mmHg 48%
    16:00 +33°C° 0 mm 8 mps 748 mmHg 52%
    17:00 +30°C° 0 mm 7 mps 748 mmHg 61%
    18:00 +28°C° 0 mm 6 mps 748 mmHg 70%
    19:00 +26°C° 0 mm 6 mps 748 mmHg 79%
    20:00 +26°C° 0 mm 5 mps 749 mmHg 82%
    21:00 +25°C° 0 mm 5 mps 749 mmHg 84%
    22:00 +25°C° 0 mm 4 mps 749 mmHg 87%
    23:00 +25°C° 0 mm 4 mps 749 mmHg 89%

    15 April, Wednesday

    Time Temperature Precipitation Wind Pressure Humidity
    00:00 +24°C° 0 mm 3 mps 749 mmHg 91%
    01:00 +24°C° 0 mm 3 mps 749 mmHg 93%
    02:00 +24°C° 0 mm 3 mps 748 mmHg 93%
    03:00 +22°C° 0 mm 3 mps 748 mmHg 94%
    04:00 +23°C° 0 mm 2 mps 748 mmHg 94%
    05:00 +24°C° 0 mm 3 mps 748 mmHg 89%
    06:00 +25°C° 0 mm 4 mps 749 mmHg 84%
    07:00 +26°C° 0 mm 4 mps 749 mmHg 78%
    08:00 +28°C° 0 mm 5 mps 749 mmHg 67%
    09:00 +32°C° 0 mm 5 mps 750 mmHg 55%
    10:00 +34°C° 0 mm 5 mps 750 mmHg 44%
    11:00 +35°C° 0 mm 5 mps 749 mmHg 40%
    12:00 +36°C° 0 mm 5 mps 749 mmHg 37%
    13:00 +37°C° 0 mm 5 mps 748 mmHg 33%
    14:00 +36°C° 0 mm 6 mps 748 mmHg 37%
    15:00 +35°C° 0 mm 7 mps 747 mmHg 41%
    16:00 +34°C° 0 mm 8 mps 747 mmHg 46%
    17:00 +32°C° 0 mm 7 mps 747 mmHg 55%
    18:00 +29°C° 0 mm 6 mps 747 mmHg 65%
    19:00 +27°C° 0 mm 5 mps 748 mmHg 75%
    20:00 +26°C° 0 mm 4 mps 748 mmHg 78%
    21:00 +26°C° 0 mm 4 mps 749 mmHg 81%
    22:00 +25°C° 0 mm 3 mps 749 mmHg 85%
    23:00 +25°C° 0 mm 3 mps 749 mmHg 87%
    Show more